Location: Muenchen
(48.1800°N, 11.5800°E)
Time: 21:33:02
(UTC+02:00)

Vanguard 2 Rocket - Visible Passes

Search period start: 29 March 2015 00:00
Search period end: 08 April 2015 01:00
Orbit: 555 x 3332 km, 32.9° (Epoch: 29 March)

Date Brightness Start Highest point End Pass type
(mag) Time Alt. Az. Time Alt. Az. Time Alt. Az.
29 Mar 9.3 03:53:12 15° SSE 03:53:12 15° SSE 03:56:06 10° SE visible
29 Mar 8.6 05:59:37 10° SW 06:04:46 19° S 06:08:33 10° SE visible
30 Mar 8.8 05:03:27 18° SSW 05:06:23 21° S 05:10:58 10° SE visible
31 Mar 9.0 04:07:49 22° S 04:07:49 22° S 04:13:08 10° SE visible
31 Mar 8.5 06:14:55 10° SW 06:20:33 21° S 06:24:35 10° SE visible
01 Apr 9.4 03:12:08 18° SE 03:12:08 18° SE 03:15:02 10° ESE visible
01 Apr 8.6 05:17:59 17° SW 05:22:12 24° S 05:27:12 10° SE visible
02 Apr 9.9 02:16:25 10° ESE 02:16:25 10° ESE 02:16:32 10° ESE visible
02 Apr 8.8 04:22:16 26° SSW 04:23:37 27° S 04:29:33 10° SE visible
03 Apr 9.1 03:26:30 26° SSE 03:26:30 26° SSE 03:31:39 10° ESE visible
03 Apr 8.6 05:32:21 15° SW 05:37:57 26° SSW 05:43:06 10° SE visible
04 Apr 9.5 02:30:43 19° SE 02:30:43 19° SE 02:33:28 10° ESE visible
04 Apr 8.7 04:36:34 26° SSW 04:39:24 30° S 04:45:37 10° SE visible
05 Apr 8.9 03:40:44 32° S 03:40:44 32° S 03:47:52 10° ESE visible
05 Apr 8.7 05:46:34 12° WSW 05:53:34 25° SSW 05:58:44 10° SSE visible
06 Apr 9.2 02:44:53 28° SE 02:44:53 28° SE 02:49:51 10° ESE visible
06 Apr 8.7 04:50:43 23° SW 04:55:04 31° SSW 05:01:27 10° SE visible
07 Apr 9.7 01:48:59 18° ESE 01:48:59 18° ESE 01:51:30 10° ESE visible
07 Apr 8.8 03:54:50 34° SSW 03:56:15 35° S 04:03:50 10° SE visible
07 Apr 8.8 06:01:39 10° WSW 06:09:01 22° SSW 06:14:02 10° SSE visible
08 Apr10.200:53:05ESE00:53:05ESE00:22:48SWvisible
